Weather History for KLCH - November, 2010

Change the Weather History Date:

Thursday, November 4, 2010

  Actual Average Record
Temperature  
Mean Temperature 62 °F 65 °F  
Max Temperature 71 °F 75 °F 88 °F (1919)
Min Temperature 52 °F 54 °F 27 °F (1912)
Degree Days  
Heating Degree Days 3 3  
Month to date heating degree days 6 12  
Since 1 July heating degree days 19 48  
Cooling Degree Days 0 3  
Month to date cooling degree days 7 12  
Year to date cooling degree days 3239 2745  
Growing Degree Days 12 (Base 50)    
Moisture  
Dew Point 42 °F    
Average Humidity 55    
Maximum Humidity 87    
Minimum Humidity 22    
Precipitation  
Precipitation 0.05 in 0.17 in 2.38 in (1954)
Month to date precipitation 2.35 0.64  
Year to date precipitation 30.60 49.02  
Snow  
Snow 0.00 in 0.00 in 0.00 in ()
Month to date snowfall 0.0 0.0  
Since 1 July snowfall 0.0 0.0  
Since 1 September snowfall 0.0 0.0  
Snow Depth 0.00 in    
Sea Level Pressure  
Sea Level Pressure 29.99 in    
Wind  
Wind Speed 15 mph (North)    
Max Wind Speed 29 mph    
Max Gust Speed 39 mph    
Visibility 10 miles    
Events Rain    
T = Trace of Precipitation, MM = Missing Value Source: NWS Daily Summary

Daily Weather History Graph

Daily Weather History Graph

Search for Another Location

Airport or City:

Trip Planner

Search our weather history database for the weather conditions in past years. The results will help you decide how hot, cold, wet, or windy it might be!

Date:

Astronomy

Nov. 04, 2010 Rise Set
Actual Time 7:29 AM CDT 6:23 PM CDT
Civil Twilight 7:04 AM CDT 6:48 PM CDT
Nautical Twilight 6:35 AM CDT 7:16 PM CDT
Astronomical Twilight 6:07 AM CDT 7:44 PM CDT
Moon 5:44 AM CDT (11/4) 5:07 PM CDT (11/4)
Length of Visible Light 11h 43m
Length of Day
10h 54m
Waning Crescent, 3% of the Moon is Illuminated
Nov 4
Waning Crescent
Nov 5
New
Nov 13
First Quarter
Nov 21
Full
Nov 28
Last Quarter

Hourly Weather History & Observations

Time (CDT) Temp. Dew Point Humidity Pressure Visibility Wind Dir Wind Speed Gust Speed Precip Events Conditions
12:18 AM 60.8 °F 57.2 °F 88% 29.91 in 10.0 mi North 23.0 mph 28.8 mph N/A   Overcast
12:53 AM 60.1 °F 57.0 °F 90% 29.93 in 10.0 mi North 16.1 mph 21.9 mph 0.03 in Rain Light Rain
1:22 AM 59.0 °F 57.2 °F 94% 29.90 in 5.0 mi North 13.8 mph - 0.02 in Rain Rain
1:53 AM 59.0 °F 57.0 °F 93% 29.93 in 7.0 mi North 10.4 mph - 0.05 in Rain Light Rain
2:06 AM 59.0 °F 57.2 °F 94% 29.90 in 10.0 mi North 12.7 mph - 0.00 in   Overcast
2:45 AM 59.0 °F 57.2 °F 94% 29.89 in 10.0 mi North 17.3 mph 24.2 mph 0.00 in   Overcast
2:53 AM 60.1 °F 57.0 °F 90% 29.92 in 10.0 mi North 15.0 mph 23.0 mph 0.00 in   Mostly Cloudy
3:53 AM 59.0 °F 55.0 °F 87% 29.92 in 10.0 mi North 16.1 mph 24.2 mph N/A   Clear
4:53 AM 57.9 °F 54.0 °F 87% 29.93 in 10.0 mi North 15.0 mph 24.2 mph N/A   Clear
5:53 AM 57.9 °F 53.1 °F 84% 29.94 in 10.0 mi North 16.1 mph 24.2 mph N/A   Clear
6:53 AM 57.0 °F 50.0 °F 77% 29.97 in 10.0 mi North 17.3 mph 24.2 mph N/A   Clear
7:53 AM 55.9 °F 43.0 °F 62% 30.01 in 10.0 mi North 16.1 mph 24.2 mph N/A   Clear
8:53 AM 57.9 °F 41.0 °F 53% 30.04 in 10.0 mi North 17.3 mph 25.3 mph N/A   Clear
9:53 AM 61.0 °F 39.0 °F 44% 30.05 in 10.0 mi North 21.9 mph 28.8 mph N/A   Clear
10:53 AM 64.9 °F 36.0 °F 34% 30.05 in 10.0 mi North 23.0 mph 28.8 mph N/A   Clear
11:53 AM 66.9 °F 33.1 °F 28% 30.04 in 10.0 mi NNE 24.2 mph 31.1 mph N/A   Clear
12:53 PM 68.0 °F 30.9 °F 25% 30.01 in 10.0 mi North 21.9 mph 31.1 mph N/A   Clear
1:53 PM 69.1 °F 28.9 °F 22% 29.98 in 10.0 mi North 18.4 mph 32.2 mph N/A   Clear
2:53 PM 69.1 °F 28.9 °F 22% 29.97 in 10.0 mi North 20.7 mph 34.5 mph N/A   Clear
3:19 PM 69.8 °F 32.0 °F 25% 29.96 in 10.0 mi NNW 19.6 mph 26.5 mph N/A   Partly Cloudy
3:53 PM 69.1 °F 33.1 °F 26% 29.98 in 10.0 mi North 16.1 mph 24.2 mph N/A   Clear
4:53 PM 68.0 °F 30.9 °F 25% 29.99 in 10.0 mi NNW 15.0 mph 20.7 mph N/A   Clear
5:53 PM 64.9 °F 32.0 °F 29% 30.01 in 10.0 mi NNW 13.8 mph 26.5 mph N/A   Clear
6:53 PM 62.1 °F 30.9 °F 31% 30.03 in 10.0 mi NNW 13.8 mph - N/A   Clear
7:53 PM 61.0 °F 32.0 °F 34% 30.06 in 10.0 mi North 11.5 mph - N/A   Clear
8:53 PM 57.0 °F 34.0 °F 42% 30.09 in 10.0 mi NW 8.1 mph - N/A   Clear
9:53 PM 57.0 °F 35.1 °F 44% 30.11 in 10.0 mi NNW 11.5 mph - N/A   Clear
10:53 PM 55.0 °F 35.1 °F 47% 30.13 in 10.0 mi NW 5.8 mph - N/A   Clear
11:53 PM 54.0 °F 34.0 °F 47% 30.13 in 10.0 mi NNW 8.1 mph - N/A   Clear